Wind_Speed
8 8 8 8 9 9 9 9 9 9 8 7 7 7 7 7 7 7 7 8 7 7 7 6 5 5 5 5 5 5 4 4 4 4 4 4 4 3 3 3 3 3 3
7 8 8 9 9 9 9 9 9 9 9 9 8 8 8 8 9 8 8 9 8 8 8 8 7 7 6 7 6 6 6 5 5 5 5 5 5 5 4 4 4 5 4
8 8 9 9 10 9 9 9 9 10 10 10 9 9 9 9 10 9 9 9 9 8 8 8 7 7 7 7 7 7 7 7 6 7 6 6 6 6 5 5 5 6 6
8 9 9 9 10 10 9 9 9 9 9 10 9 9 10 10 10 9 9 9 8 8 8 8 7 7 8 8 8 8 8 8 7 7 7 7 7 7 6 7 7 6 6
8 8 8 9 9 10 10 10 10 9 9 10 10 10 10 10 9 9 9 9 8 9 9 8 8 8 8 8 8 9 9 9 8 8 8 8 7 7 8 8 8 7 7
7 8 8 8 9 9 9 10 10 10 10 10 10 10 10 10 10 10 9 9 9 9 8 8 8 8 9 8 8 8 8 9 9 9 8 8 8 8 8 8 9 8 8
7 8 8 8 9 9 9 9 10 11 11 11 10 10 10 9 9 10 10 10 9 9 8 8 8 9 9 9 9 9 8 8 9 9 9 9 9 9 9 9 10 9 9
7 7 8 8 8 8 8 9 9 10 10 10 10 10 10 10 10 10 10 10 9 9 9 9 8 9 9 10 9 9 9 9 10 10 10 9 9 9 10 10 10 10 10
7 7 7 8 8 8 8 8 9 9 10 10 10 10 10 10 10 10 10 10 10 9 9 9 10 10 10 10 10 9 9 9 9 10 10 10 10 10 10 10 11 11 10
7 7 7 7 7 7 8 8 8 8 9 10 10 10 10 10 10 11 10 10 10 10 11 11 11 11 11 11 11 11 11 10 10 10 11 11 11 11 11 11 11 11 11
7 7 7 6 6 6 6 7 7 7 8 9 10 10 10 10 10 10 10 11 11 12 12 11 12 11 11 11 11 11 11 10 11 11 11 11 11 11 11 12 12 12 11
7 7 6 6 6 6 6 6 6 7 7 8 9 9 9 10 10 10 10 11 12 12 12 12 12 12 12 12 11 11 10 9 10 10 11 11 11 11 12 12 12 12 12
6 7 7 7 7 6 6 6 6 7 7 7 8 8 9 9 9 9 9 10 11 11 11 11 11 12 12 12 11 11 10 10 10 10 11 11 12 12 12 12 11 11 12
6 7 7 6 6 5 5 5 6 6 7 7 8 9 9 9 9 9 9 10 10 10 10 10 10 10 11 11 11 10 11 10 10 11 11 11 12 11 11 11 11 12 12
7 6 6 6 5 5 6 6 6 6 6 6 7 7 7 7 8 8 9 10 10 10 10 9 9 10 11 11 11 11 10 10 10 10 10 10 11 11 10 11 11 12 12
7 7 7 6 6 6 6 7 7 6 6 5 5 6 6 6 7 8 8 9 9 9 9 9 9 10 10 11 11 11 10 9 9 9 9 9 9 10 11 10 10 11 11
7 7 7 6 6 6 7 7 7 7 6 6 6 7 7 7 7 8 8 8 8 8 8 9 9 9 9 9 9 9 10 10 10 9 9 9 10 10 10 10 10 11 11
7 7 7 7 6 7 7 7 7 7 7 8 8 8 8 8 8 8 8 8 8 8 8 9 9 9 9 9 8 8 9 10 10 9 9 10 10 10 10 10 11 11 11
8 8 8 8 8 8 8 7 7 7 8 8 8 9 8 8 8 8 8 8 8 8 8 8 9 9 9 9 9 9 9 9 9 9 10 10 10 11 11 11 11 11 11
9 9 9 9 9 9 9 8 8 8 9 8 9 8 8 8 8 8 8 8 8 8 9 9 9 9 10 9 9 10 10 9 9 9 10 11 11 12 12 12 12 12 12
9 9 9 10 10 10 9 9 9 8 9 9 9 9 8 8 8 8 8 8 8 9 9 9 10 10 10 10 10 10 10 10 10 11 11 11 12 12 12 12 12 12 12
9 10 10 10 10 10 10 9 9 9 9 9 9 8 8 8 8 8 9 9 9 9 10 10 10 10 10 11 11 11 11 11 12 12 12 12 12 12 12 12 13 13 13
10 10 11 11 11 10 11 10 9 9 10 10 9 9 8 9 9 9 9 10 10 10 11 12 12 12 11 12 12 12 12 13 13 13 13 13 13 13 13 13 14 14 14
10 11 11 11 11 11 11 10 10 10 11 11 10 10 10 10 10 10 10 10 11 11 12 12 13 13 12 12 13 13 14 14 15 14 14 14 14 14 14 14 14 15 15
11 11 12 12 12 11 11 11 11 11 11 11 11 11 11 10 11 11 11 11 11 11 12 13 13 13 13 13 13 14 15 15 15 15 15 15 15 14 15 15 15 15 15
12 12 12 12 12 12 11 11 11 12 12 12 12 12 12 12 12 12 13 13 12 12 12 12 13 13 14 14 14 15 15 15 15 15 15 15 15 15 15 15 16 15 15
Wind_Direction
263 262 259 258 256 255 255 252 250 252 254 253 249 250 249 242 240 238 236 231 229 227 229 227 225 229 231 228 219 218 221 220 227 229 230 230 226 231 238 245 239 238 243
268 266 262 261 259 258 258 258 254 253 253 255 253 251 254 249 244 246 241 239 238 233 233 233 232 230 230 231 230 228 230 231 232 235 239 237 240 244 247 245 243 243 248
273 271 268 265 263 262 261 260 257 253 251 254 256 257 256 248 246 247 245 239 239 237 234 236 235 233 232 236 234 233 235 238 244 243 242 244 247 248 245 251 255 247 249
278 274 270 267 265 264 263 261 260 258 255 254 257 259 254 249 246 247 244 240 237 235 235 238 239 240 239 240 239 240 241 240 245 244 243 247 252 249 249 253 256 251 255
283 278 272 268 268 266 263 262 258 258 259 258 255 256 255 253 248 244 242 240 240 238 239 238 242 243 241 242 239 243 242 238 242 242 246 251 253 254 261 258 256 258 262
285 281 276 273 270 267 265 263 262 261 263 262 258 257 256 252 251 247 243 245 247 245 241 239 244 242 242 246 244 242 242 240 242 246 251 254 253 257 261 260 259 259 265
285 282 281 280 275 269 267 266 265 264 263 263 259 257 257 257 253 250 247 250 250 248 246 248 246 243 244 247 250 250 248 246 248 248 252 255 255 256 260 263 264 264 267
287 287 286 286 283 276 271 269 266 266 264 264 262 258 256 255 254 247 246 247 249 248 245 247 246 247 249 252 255 256 257 255 251 254 255 255 255 259 264 265 266 266 266
294 293 289 288 286 284 279 276 271 269 266 261 262 260 256 252 251 248 245 246 248 246 249 250 254 253 254 252 253 255 257 258 255 257 256 256 257 261 265 268 268 265 264
304 304 301 293 286 285 282 280 277 272 268 263 259 259 258 255 252 252 251 247 247 248 249 251 254 255 254 255 255 257 257 259 259 258 258 260 262 264 266 268 266 267 266
313 313 313 309 301 294 287 283 281 276 272 267 262 260 259 258 255 257 253 252 249 248 249 249 252 253 255 257 257 258 257 260 262 261 264 264 264 268 271 270 268 269 269
320 320 319 315 310 302 295 288 286 283 277 271 266 261 258 261 259 258 258 259 253 252 253 252 253 254 256 259 260 261 260 262 264 266 267 267 266 270 274 272 268 268 270
327 325 318 311 308 307 299 293 289 286 282 275 268 264 261 262 263 264 266 264 262 260 260 258 259 257 256 260 263 263 264 265 264 269 269 268 268 269 272 272 267 267 271
332 334 331 323 312 311 308 302 294 291 290 285 278 271 267 264 262 264 264 263 264 263 263 261 263 263 263 263 262 263 264 262 265 268 269 270 271 271 272 271 269 269 272
341 342 341 338 325 320 314 308 304 301 297 291 286 280 275 269 262 260 261 262 263 263 263 263 267 269 267 266 263 263 264 264 265 265 269 269 268 270 273 274 273 271 273
346 344 339 334 329 322 316 310 305 300 302 299 289 287 279 276 272 264 261 262 262 261 259 263 266 267 267 267 265 264 264 265 269 267 270 273 274 272 273 274 273 274 276
345 343 335 333 333 326 319 314 311 304 301 296 291 292 284 285 281 275 268 265 266 262 259 263 266 267 270 271 266 261 264 269 271 270 270 273 275 276 277 274 274 276 278
334 334 328 325 325 323 321 315 308 302 297 293 291 291 289 285 283 279 273 270 269 266 264 264 266 268 269 271 267 261 263 269 272 269 270 272 272 273 276 276 275 277 279
325 325 323 319 316 316 318 317 309 302 301 297 295 295 292 285 279 278 273 272 269 268 267 269 270 268 267 272 269 266 267 268 271 271 272 272 272 273 276 279 279 280 281
319 319 319 318 316 314 313 312 308 303 301 300 299 297 291 287 285 282 278 274 271 269 269 271 273 272 268 271 269 267 269 269 271 273 275 275 275 275 275 278 278 279 281
315 315 316 317 317 312 306 304 304 305 302 298 296 292 287 286 286 284 283 278 277 273 269 272 274 273 272 271 270 268 270 272 273 276 277 276 275 275 275 278 276 277 278
313 314 313 314 314 311 309 307 301 301 304 304 302 291 283 284 287 288 285 279 280 277 274 273 273 272 271 270 270 269 269 271 272 274 276 277 276 277 277 278 279 278 276
311 312 313 313 313 308 307 306 301 299 300 301 298 292 285 282 283 287 284 282 280 278 278 276 273 270 268 267 269 269 269 270 272 273 273 275 276 277 277 279 280 279 278
311 310 310 312 313 309 307 305 301 301 299 296 294 290 287 284 283 284 283 283 285 280 277 278 274 271 268 267 270 271 272 273 273 272 273 273 274 276 277 278 279 279 279
312 309 309 310 310 307 305 303 301 299 297 296 294 291 290 287 287 286 284 285 288 283 280 278 276 274 270 270 272 274 274 274 274 273 272 273 274 275 277 277 279 281 282
310 309 306 307 306 305 304 303 300 298 295 293 291 291 291 291 289 288 286 285 286 285 282 280 275 276 271 272 274 275 276 275 274 273 272 272 274 276 277 278 279 282 283
Height
5869 5869 5869 5869 5869 5869 5869 5870 5870 5870 5870 5870 5870 5871 5871 5871 5872 5872 5873 5873 5874 5874 5875 5876 5876 5877 5878 5878 5879 5879 5880 5880 5881 5881 5882 5882 5883 5883 5884 5884 5885 5886 5886
5867 5867 5867 5867 5867 5868 5868 5868 5868 5869 5869 5869 5869 5869 5870 5870 5870 5871 5871 5872 5873 5873 5874 5875 5876 5876 5877 5877 5878 5879 5879 5880 5880 5881 5881 5882 5882 5883 5883 5884 5884 5885 5886
5866 5866 5866 5866 5866 5866 5866 5867 5867 5867 5867 5867 5868 5868 5868 5868 5868 5869 5870 5871 5872 5872 5873 5874 5875 5875 5876 5877 5877 5878 5878 5879 5879 5880 5880 5881 5881 5882 5883 5883 5884 5884 5885
5865 5865 5864 5864 5865 5865 5865 5865 5865 5866 5866 5866 5866 5866 5866 5866 5867 5868 5868 5869 5870 5871 5872 5873 5873 5874 5875 5875 5876 5877 5877 5878 5878 5879 5879 5880 5880 5881 5882 5882 5883 5883 5884
5863 5863 5863 5863 5863 5863 5863 5863 5864 5864 5864 5864 5865 5865 5865 5865 5865 5866 5867 5868 5869 5870 5871 5871 5872 5873 5874 5874 5875 5875 5876 5876 5877 5878 5878 5879 5879 5880 5880 5881 5882 5882 5883
5862 5862 5861 5861 5861 5861 5861 5862 5862 5862 5862 5862 5863 5863 5863 5863 5864 5865 5866 5867 5868 5868 5869 5870 5871 5871 5872 5873 5873 5874 5874 5875 5876 5876 5877 5878 5878 5879 5879 5880 5880 5881 5881
5861 5861 5860 5860 5860 5860 5860 5860 5860 5860 5860 5861 5861 5862 5862 5862 5863 5864 5864 5865 5866 5867 5868 5869 5869 5870 5871 5871 5872 5872 5873 5874 5874 5875 5876 5876 5877 5877 5878 5878 5879 5879 5880
5860 5859 5859 5858 5858 5858 5858 5858 5858 5858 5859 5859 5860 5860 5861 5861 5861 5862 5863 5864 5865 5865 5867 5867 5868 5869 5869 5870 5871 5871 5872 5872 5873 5874 5874 5875 5875 5876 5876 5877 5877 5878 5878
5858 5858 5858 5857 5857 5856 5856 5856 5856 5856 5857 5857 5858 5858 5859 5859 5860 5861 5862 5862 5863 5864 5865 5866 5867 5867 5868 5868 5869 5870 5870 5871 5872 5872 5873 5873 5874 5874 5874 5875 5875 5876 5876
5857 5856 5856 5856 5855 5855 5855 5855 5855 5855 5855 5855 5856 5856 5857 5858 5858 5859 5860 5861 5861 5862 5863 5864 5865 5865 5866 5867 5867 5868 5869 5870 5870 5871 5871 5871 5872 5872 5873 5873 5873 5874 5874
5856 5855 5855 5854 5854 5854 5853 5853 5853 5853 5853 5854 5854 5855 5855 5856 5857 5857 5858 5859 5860 5860 5861 5862 5863 5863 5864 5865 5865 5866 5867 5868 5868 5869 5869 5869 5870 5870 5871 5871 5871 5872 5872
5855 5854 5854 5853 5853 5852 5852 5852 5852 5852 5852 5852 5852 5853 5853 5854 5855 5855 5856 5857 5858 5858 5859 5860 5860 5861 5862 5863 5863 5864 5865 5866 5866 5867 5867 5867 5868 5868 5869 5869 5869 5870 5870
5854 5853 5852 5852 5851 5851 5851 5851 5851 5851 5851 5851 5851 5851 5851 5852 5852 5853 5854 5855 5855 5856 5857 5857 5858 5859 5860 5861 5862 5862 5863 5864 5864 5865 5865 5865 5866 5866 5866 5867 5867 5867 5868
5853 5852 5851 5851 5850 5850 5850 5849 5849 5849 5849 5849 5849 5850 5850 5850 5851 5851 5852 5853 5854 5854 5855 5856 5856 5857 5858 5859 5860 5860 5861 5861 5862 5862 5863 5863 5864 5864 5864 5864 5865 5865 5865
5853 5852 5851 5850 5850 5849 5849 5848 5848 5848 5847 5848 5848 5848 5848 5848 5849 5850 5850 5851 5852 5852 5853 5854 5854 5855 5856 5857 5857 5858 5859 5859 5860 5860 5861 5861 5861 5861 5862 5862 5862 5862 5862
5853 5852 5851 5850 5849 5849 5848 5848 5847 5847 5846 5846 5847 5847 5847 5847 5847 5848 5848 5849 5850 5850 5851 5852 5852 5853 5854 5855 5855 5856 5857 5857 5858 5858 5858 5859 5859 5859 5859 5860 5860 5860 5860
5852 5851 5850 5849 5849 5848 5847 5847 5846 5846 5846 5846 5846 5846 5846 5846 5846 5846 5847 5847 5848 5848 5849 5850 5851 5851 5852 5853 5853 5854 5854 5855 5856 5856 5856 5856 5857 5857 5857 5858 5858 5858 5858
5852 5851 5850 5849 5848 5847 5846 5846 5845 5845 5845 5845 5845 5844 5844 5844 5844 5845 5845 5845 5846 5847 5847 5848 5849 5849 5850 5851 5851 5852 5852 5853 5853 5853 5854 5854 5855 5855 5855 5855 5855 5855 5855
5851 5850 5849 5848 5847 5846 5846 5845 5844 5844 5844 5843 5843 5843 5843 5843 5843 5843 5843 5844 5844 5845 5845 5846 5847 5847 5848 5849 5849 5850 5850 5851 5851 5851 5852 5852 5852 5853 5853 5853 5853 5853 5852
5850 5849 5848 5847 5847 5846 5845 5844 5843 5843 5843 5842 5842 5841 5841 5841 5841 5842 5842 5842 5843 5843 5843 5844 5845 5845 5846 5847 5847 5848 5848 5848 5849 5849 5849 5849 5850 5850 5850 5850 5850 5850 5850
5849 5848 5847 5846 5845 5844 5843 5843 5842 5842 5841 5841 5840 5840 5840 5840 5840 5840 5840 5840 5841 5841 5841 5842 5842 5843 5844 5844 5845 5845 5845 5846 5846 5846 5847 5847 5847 5847 5847 5847 5847 5847 5847
5847 5846 5846 5845 5844 5843 5842 5841 5841 5840 5840 5839 5839 5838 5838 5838 5838 5838 5838 5838 5839 5839 5839 5840 5840 5841 5841 5842 5842 5843 5843 5844 5843 5844 5844 5844 5844 5844 5844 5844 5844 5844 5844
5846 5845 5844 5843 5842 5841 5841 5840 5839 5839 5838 5838 5837 5837 5837 5836 5836 5836 5836 5836 5836 5837 5837 5837 5837 5838 5838 5839 5839 5840 5840 5840 5841 5841 5841 5841 5841 5841 5841 5841 5840 5840 5840
5844 5843 5842 5841 5840 5839 5838 5838 5837 5837 5836 5836 5835 5835 5835 5834 5834 5834 5834 5834 5834 5834 5834 5834 5834 5835 5835 5835 5836 5836 5837 5837 5837 5838 5838 5837 5837 5838 5838 5837 5837 5837 5837
5842 5841 5840 5839 5838 5837 5836 5836 5835 5834 5834 5833 5833 5833 5833 5832 5832 5832 5832 5831 5831 5831 5831 5831 5831 5831 5832 5832 5832 5832 5833 5833 5833 5833 5834 5834 5834 5834 5834 5834 5833 5833 5833
5840 5839 5838 5837 5836 5835 5834 5833 5833 5832 5831 5831 5830 5830 5830 5830 5829 5829 5829 5829 5828 5828 5828 5828 5828 5828 5828 5828 5829 5829 5828 5828 5828 5829 5829 5829 5830 5830 5830 5830 5829 5829 5829